This demonstration page uses our WeatherBlox Daily Observations layout. Learn more.

Left ArrowRight Arrow

34.02893, -84.19858

Hourly Observations for December 4, 2018

Temp ( °F °C ) Dew Point ( °F °C ) Humidity (%) Winds ( mph kmh ) Pressure ( in mb ) Visibility ( mi km ) Precip ( " mm )
12:53 am 00:53 Clear 42 5.6 29 -1.7 60 60 NW 10 17 30.04 1017 10 16 0.00 0.00
1:53 am 01:53 Clear 41 5 29 -1.7 62 62 NW 13 20 30.05 1018 10 16 0.00 0.00
2:53 am 02:53 Clear 40 4.4 29 -1.7 65 65 NW 10 17 30.06 1018 10 16 0.00 0.00
3:53 am 03:53 Clear 39 3.9 29 -1.7 67 67 NW 13 20 30.06 1018 10 16 0.00 0.00
4:53 am 04:53 Clear 39 3.9 30 -1.1 70 70 NW 12 19 30.06 1018 10 16 0.00 0.00
5:53 am 05:53 Clear 38 3.3 30 -1.1 73 73 NW 12 19 30.08 1019 10 16 0.00 0.00
6:53 am 06:53 Clear 37 2.8 29 -1.7 73 73 NW 7 11 30.11 1020 10 16 0.00 0.00
7:53 am 07:53 Sunny 37 2.8 29 -1.7 73 73 WNW 10 17 30.14 1021 10 16 0.00 0.00
8:53 am 08:53 Sunny 39 3.9 30 -1.1 70 70 NNW 8 13 30.15 1021 10 16 0.00 0.00
9:53 am 09:53 Sunny 40 4.4 30 -1.1 68 68 NW 13 20 30.18 1022 10 16 0.00 0.00
10:50 am 10:50 Mostly Cloudy 45 7 30 -1 57 57 NNW 7 11 30.18 1022 10 16 0.00 0.00
10:53 am 10:53 Mostly Cloudy 45 7.2 31 -0.6 58 58 NNW 10 17 30.17 1022 10 16 0.00 0.00
11:32 am 11:32 Partly Cloudy 46 7.8 30 -1.1 54 54 NW 6 9 30.15 1021 10 16 0.00 0.00
11:53 am 11:53 Partly Cloudy 47 8.3 30 -1.1 52 52 NW 13 20 30.14 1021 10 16 0.00 0.00
12:53 pm 12:53 Sunny 46 7.8 29 -1.7 51 51 NNW 9 15 30.11 1020 10 16 0.00 0.00
1:53 pm 13:53 Sunny 47 8.3 28 -2.2 48 48 W 10 17 30.11 1020 10 16 0.00 0.00
2:53 pm 14:53 Sunny 47 8.3 27 -2.8 46 46 NW 9 15 30.09 1019 10 16 0.00 0.00
3:53 pm 15:53 Sunny 47 8.3 27 -2.8 46 46 W 12 19 30.10 1019 10 16 0.00 0.00
4:53 pm 16:53 Sunny 45 7.2 25 -3.9 46 46 WNW 12 19 30.12 1020 10 16 0.00 0.00
5:53 pm 17:53 Clear 43 6.1 26 -3.3 51 51 WNW 9 15 30.14 1021 10 16 0.00 0.00
6:53 pm 18:53 Mostly Clear 41 5 27 -2.8 57 57 NNW 8 13 30.16 1021 10 16 0.00 0.00
7:53 pm 19:53 Clear 38 3.3 26 -3.3 62 62 NNW 8 13 30.17 1022 10 16 0.00 0.00
8:53 pm 20:53 Clear 37 2.8 26 -3.3 65 65 NW 7 11 30.19 1022 10 16 0.00 0.00
9:53 pm 21:53 Clear 36 2.2 25 -3.9 64 64 NNW 3 6 30.19 1022 10 16 0.00 0.00
10:53 pm 22:53 Clear 35 1.7 25 -3.9 67 67 NW 6 9 30.18 1022 10 16 0.00 0.00
11:53 pm 23:53 Clear 36 2.2 24 -4.4 62 62 NW 9 15 30.17 1022 10 16 0.00 0.00

Powered by AerisWeather